Location: Beverley
(50.2667°N, 107.9667°W)
Time: 03:43:20
(UTC+00:00)

AIST 2D - Visible Passes

Search period start: 29 June 2022 00:00
Search period end: 09 July 2022 00:00
Orbit: 433 x 449 km, 97.1° (Epoch: 28 June)

Date Brightness Start Highest point End Pass type
(mag) Time Alt. Az. Time Alt. Az. Time Alt. Az.
29 Jun ? 04:50:59 10° NNE 04:54:18 73° ESE 04:57:37 10° S visible
29 Jun ? 06:25:51 10° NW 06:26:24 10° WNW 06:26:57 10° WNW visible
30 Jun ? 04:13:40 10° NE 04:16:28 25° E 04:19:16 10° SSE visible
30 Jun ? 05:46:18 10° NNW 05:49:03 24° WNW 05:51:46 10° WSW visible
01 Jul ? 05:08:09 10° N 05:11:28 67° WNW 05:14:46 10° SSW visible
02 Jul ? 04:30:32 10° NNE 04:33:41 39° E 04:36:49 10° S visible
02 Jul ? 06:03:52 10° NNW 06:06:01 16° WNW 06:08:11 10° WSW visible
03 Jul ? 05:25:21 10° N 05:28:30 40° WNW 05:31:38 10° SW visible
04 Jul ? 04:47:27 10° NNE 04:50:46 66° E 04:54:04 10° S visible
04 Jul ? 06:21:50 10° NW 06:22:54 11° WNW 06:23:56 10° W visible
05 Jul ? 04:10:06 10° NE 04:12:50 23° E 04:15:33 10° SSE visible
05 Jul ? 05:42:35 10° N 05:45:25 26° WNW 05:48:15 10° SW visible
06 Jul ? 05:04:24 10° N 05:07:45 74° WNW 05:11:04 10° SSW visible
07 Jul ? 04:26:44 10° NNE 04:29:51 36° E 04:32:57 10° SSE visible
07 Jul ? 05:59:55 10° NNW 06:02:14 18° WNW 06:04:32 10° WSW visible
08 Jul ? 05:21:23 10° N 05:24:36 44° WNW 05:27:48 10° SW visible
